Delta Virtual Airport Information Service

George Town Owen Roberts International Airport

ICAO: MWCR Country: Cayman Islands
Latitude: 19.2928 Longitude: -81.3577
Latest Arrival : AAL1007 (KMIA-MWCR) Latest Departure : AAL1250 (1) (MWCR-KMIA)


WX CaptureLIVE
Data provided by noaa.gov | Fetched at 04:43:31

METAR : MWCR 030300Z 06011KT 9999 FEW022 27/23 Q1017

TAF : MWCR 030300Z 0300/0324 CNL


Runway Data for MWCR
Data provided by openaviationdata.com

Runway ID Mag Var Hdg Length Elevation Surface ILS Freq ILS Id ILS Slope
8 -3 78° 7421 ft 8 ft Concrete -- -- --
26 -3 258° 7421 ft 8 ft Concrete -- -- --

George Town Owen Roberts International Airport, Cayman Islands
Use only for reference purposes



Not for navigational purposes.